DW0307 Weather Reports


time (UTC)temp
F
wind
direction
speed
knots
gust
knots
rain 1hr
in
rain 24hr
in
rain mn
in
humidity
%
barometer
mb
20260502211551 38 292 1.7 5.2 0.00 0.00 0.00 76 1022.6
20260502210056 40 214 1.7 3.5 0.00 0.00 0.00 73 1022.6
20260502204547 42 150 0.0 2.6 0.00 0.00 0.00 73 1022.4
20260502203044 41 108 1.7 7.8 0.00 0.00 0.00 76 1022.3
20260502201546 39 343 1.7 3.5 0.00 0.00 0.00 75 1022.5
20260502200101 41 304 2.6 4.3 0.00 0.00 0.00 74 1022.4
20260502194559 41 286 1.7 3.5 0.00 0.00 0.00 72 1022.4
20260502193051 41 279 1.7 3.5 0.00 0.00 0.00 70 1022.4
20260502191550 46 0 0.0 1.7 0.00 0.00 0.00 60 1022.4
20260502190058 49 0 0.9 2.6 0.00 0.00 0.00 61 1022.1
20260502184554 49 0 0.0 2.6 0.00 0.00 0.00 61 1021.9
20260502183050 50 279 1.7 2.6 0.00 0.00 0.00 57 1021.8
20260502181548 55 279 0.9 5.2 0.00 0.00 0.00 51 1021.7
20260502180109 56 42 4.3 9.6 0.00 0.00 0.00 49 1021.3
20260502163053 64 52 9.6 17.4 0.00 0.00 0.00 39 1020.9
20260502161554 65 70 8.7 14.8 0.00 0.00 0.00 36 1020.9
20260502151558 66 74 11.3 17.4 0.00 0.00 0.00 35 1021.1
20260502123058 66 46 13.0 20.9 0.00 0.00 0.00 35 1022.2
20260502121603 67 59 10.4 17.4 0.00 0.00 0.00 38 1022.5
20260502114553 66 59 10.4 19.1 0.00 0.00 0.00 38 1022.8
20260502113057 66 92 12.2 20.0 0.00 0.00 0.00 40 1022.9
20260502111559 65 53 11.3 20.0 0.00 0.00 0.00 42 1023.0
20260502110055 65 37 10.4 20.0 0.00 0.00 0.00 43 1023.2
20260502104554 65 82 11.3 20.9 0.00 0.00 0.00 44 1023.2
20260502103105 65 77 9.6 19.1 0.00 0.00 0.00 44 1023.3
20260502101606 64 58 10.4 21.7 0.00 0.00 0.00 47 1023.4
20260502100110 63 17 10.4 20.9 0.00 0.00 0.00 47 1023.5
20260502080105 60 276 2.6 7.8 0.00 0.00 0.00 57 1024.6
20260502070050 56 82 1.7 3.5 0.00 0.00 0.00 61 1024.8
20260502064547 55 0 0.0 3.5 0.00 0.00 0.00 61 1024.8
20260502063042 54 0 0.9 5.2 0.00 0.00 0.00 63 1024.9
20260502061550 53 115 2.6 5.2 0.00 0.00 0.00 66 1024.9
20260502060056 53 107 2.6 6.1 0.00 0.00 0.00 67 1024.8
20260502054550 52 100 2.6 5.2 0.00 0.00 0.00 67 1024.7
20260502053059 50 0 0.0 1.7 0.00 0.00 0.00 70 1024.8
20260502051558 47 0 0.0 1.7 0.00 0.00 0.00 77 1024.8
20260502050056 44 0 0.0 1.7 0.00 0.00 0.00 81 1024.6
20260502044549 41 262 0.0 0.0 0.00 0.00 0.00 86 1024.6
20260502043050 37 262 0.9 1.7 0.00 0.00 0.00 87 1024.6
20260502041549 34 0 0.0 2.6 0.00 0.00 0.00 86 1024.5
20260502040050 32 262 0.0 3.5 0.00 0.00 0.00 85 1024.5
20260502034547 33 0 0.0 2.6 0.00 0.00 0.00 85 1024.3
20260502033053 32 264 0.9 3.5 0.00 0.00 0.00 83 1024.3
20260502031548 33 308 0.9 7.0 0.00 0.00 0.00 83 1024.1
20260502030050 34 245 1.7 4.3 0.00 0.00 0.00 84 1024.2
20260502024544 35 279 0.0 1.7 0.00 0.00 0.00 82 1024.3
20260502023043 36 281 0.0 1.7 0.00 0.00 0.00 82 1024.2
20260502021549 36 281 0.9 3.5 0.00 0.00 0.00 81 1024.2
20260502020047 37 279 0.9 3.5 0.00 0.00 0.00 80 1024.2
20260502014549 38 236 0.0 2.6 0.00 0.00 0.00 80 1024.3
20260502013051 38 236 0.0 2.6 0.00 0.00 0.00 78 1024.3
20260502011603 41 236 0.0 2.6 0.00 0.00 0.00 76 1024.3
20260502010048 42 0 0.0 3.5 0.00 0.00 0.00 76 1024.4
20260502004558 44 285 0.9 7.8 0.00 0.00 0.00 76 1024.4
20260502003044 44 213 3.5 4.3 0.00 0.00 0.00 75 1024.4
20260502001546 45 210 3.5 5.2 0.00 0.00 0.00 75 1024.6
20260502000107 45 255 0.9 3.5 0.00 0.00 0.00 76 1024.6
20260501234542 44 255 2.6 4.3 0.00 0.00 0.00 77 1024.5
20260501233044 43 0 0.0 4.3 0.00 0.00 0.00 78 1024.6
20260501231551 42 0 0.0 3.5 0.00 0.00 0.00 78 1024.6
20260501230043 42 271 1.7 2.6 0.00 0.00 0.00 77 1024.6
20260501224542 41 259 2.6 7.0 0.00 0.00 0.00 76 1024.6
20260501223042 42 247 1.7 3.5 0.00 0.00 0.00 74 1024.5
20260501221603 43 317 0.0 3.5 0.00 0.00 0.00 75 1024.5
20260501220053 42 311 0.0 2.6 0.00 0.00 0.00 73 1024.5
20260501214553 44 310 0.9 2.6 0.00 0.00 0.00 72 1024.6
20260501213049 46 310 0.0 4.3 0.00 0.00 0.00 71 1024.5